Location: Unspecified
(0.0000°N, 0.0000°E)
Time: 10:52:28
(UTC+00:00)

GGSE 1 - Visible Passes

Search period start: 11 March 2026 00:00
Search period end: 21 March 2026 00:00
Orbit: 894 x 909 km, 69.9° (Epoch: 11 March)

Date Brightness Start Highest point End Pass type
(mag) Time Alt. Az. Time Alt. Az. Time Alt. Az.
11 Mar 8.0 04:10:34 52° NNE 04:11:54 69° ENE 04:17:49 10° SSE visible
12 Mar 7.7 04:15:27 73° SSW 04:15:27 73° SSW 04:20:52 10° SSE visible
13 Mar 8.6 04:20:05 36° SSW 04:20:05 36° SSW 04:23:43 10° S visible
14 Mar 9.5 04:24:30 19° SSW 04:24:30 19° SSW 04:26:22 10° S visible
15 Mar 10.0 04:28:45 10° SSW 04:28:45 10° SSW 04:28:47 10° SSW visible
